N5CNB-2 Weather Reports


time (UTC)temp
F
wind
direction
speed
knots
gust
knots
rain 1hr
in
rain 24hr
in
rain mn
in
humidity
%
barometer
mb
20260505223054 82 217 6.1 16.5 0.00 0.00 0.00 77 1006.4
20260505221600 82 172 5.2 13.0 0.00 0.00 0.00 77 1006.4
20260505220057 83 160 3.5 13.0 0.00 0.00 0.00 75 1006.5
20260505214556 83 180 5.2 17.4 0.00 0.00 0.00 74 1006.5
20260505213048 84 225 6.1 14.8 0.00 0.00 0.00 75 1006.8
20260505211549 83 184 6.1 14.8 0.00 0.00 0.00 75 1007.1
20260505210051 84 163 7.8 14.8 0.00 0.00 0.00 74 1007.3
20260505204550 83 104 6.1 17.4 0.00 0.00 0.00 77 1007.5
20260505203107 83 162 6.1 13.9 0.00 0.00 0.00 75 1007.5
20260505201600 83 182 4.3 14.8 0.00 0.00 0.00 75 1007.8
20260505200055 84 171 5.2 13.0 0.00 0.00 0.00 76 1008.0
20260505194552 84 194 3.5 16.5 0.00 0.00 0.00 76 1008.1
20260505193052 83 183 6.1 19.1 0.00 0.00 0.00 77 1008.3
20260505191608 82 146 5.2 12.2 0.00 0.00 0.00 77 1008.6
20260505190054 82 177 2.6 10.4 0.00 0.00 0.00 78 1008.8
20260505184556 83 181 1.7 8.7 0.00 0.00 0.00 76 1008.9
20260505183057 81 159 1.7 11.3 0.00 0.00 0.00 80 1008.9
20260505181554 81 135 3.5 9.6 0.00 0.00 0.00 80 1008.9
20260505174600 81 147 4.3 10.4 0.00 0.00 0.00 80 1009.1
20260505173059 80 137 5.2 10.4 0.00 0.00 0.00 79 1009.3
20260505171602 80 196 4.3 8.7 0.00 0.00 0.00 81 1009.3
20260505170111 80 200 3.5 11.3 0.00 0.00 0.00 81 1009.5
20260505164555 79 219 3.5 12.2 0.00 0.00 0.00 84 1009.4
20260505163057 78 193 2.6 12.2 0.00 0.00 0.00 86 1009.5
20260505161613 77 153 3.5 12.2 0.00 0.00 0.00 86 1009.5
20260505153102 76 188 3.5 8.7 0.00 0.00 0.00 87 1009.4
20260505151604 75 171 2.6 9.6 0.00 0.00 0.00 88 1009.3
20260505140105 72 186 4.3 12.2 0.00 0.00 0.00 93 1009.0
20260505124555 0 0.0 0.0 0.00 0.00 0.00 1008.9
20260505123056 0 0.0 0.0 0.00 0.00 0.00 1008.7
20260505121622 0 0.0 0.0 0.00 0.00 0.00 1008.9
20260505120056 0 0.0 0.0 0.00 0.00 0.00 1008.7
20260505114555 0 0.0 0.0 0.00 0.00 0.00 1008.7
20260505113101 0 0.0 0.0 0.00 0.00 0.00 1008.2
20260505111556 0 0.0 0.0 0.00 0.00 0.00 1008.3
20260505101557 0 0.0 0.0 0.00 0.00 0.00 1008.3
20260505094557 0 0.0 0.0 0.00 0.00 0.00 1008.3
20260505093056 0 0.0 0.0 0.00 0.00 0.00 1008.5
20260505091552 0 0.0 0.0 0.00 0.00 0.00 1008.9
20260505084553 0 0.0 0.0 0.00 0.00 0.00 1008.9
20260505083057 0 0.0 0.0 0.00 0.00 0.00 1009.0
20260505081549 0 0.0 0.0 0.00 0.00 0.00 1009.1
20260505080056 0 0.0 0.0 0.00 0.00 0.00 1009.2
20260505074552 0 0.0 0.0 0.00 0.00 0.00 1009.4
20260505073056 0 0.0 0.0 0.00 0.00 0.00 1009.7
20260505071555 0 0.0 0.0 0.00 0.00 0.00 1009.6
20260505070055 0 0.0 0.0 0.00 0.00 0.00 1009.6
20260505064557 0 0.0 0.0 0.00 0.00 0.00 1009.7
20260505063052 0 0.0 0.0 0.00 0.00 0.00 1009.7
20260505061551 0 0.0 0.0 0.00 0.00 0.00 1009.9
20260505060055 0 0.0 0.0 0.00 0.00 0.00 1009.8
20260505054556 0 0.0 0.0 0.00 0.00 0.00 1010.0
20260505053106 0 0.0 0.0 0.00 0.00 0.00 1010.2
20260505051550 0 0.0 0.0 0.00 0.00 0.00 1010.2
20260505041551 70 161 2.6 12.2 0.00 0.00 0.00 81 1011.0
20260505040049 71 175 2.6 11.3 0.00 0.00 0.00 80 1011.1
20260505034550 71 185 3.5 13.9 0.00 0.00 0.00 80 1010.7
20260505033109 71 166 3.5 11.3 0.00 0.00 0.00 79 1010.7
20260505031551 71 182 2.6 8.7 0.00 0.00 0.00 78 1010.8
20260505030053 71 0 3.5 9.6 0.00 0.00 0.00 78 1010.8
20260505024552 72 164 2.6 13.0 0.00 0.00 0.00 78 1010.8
20260505023100 72 183 1.7 11.3 0.00 0.00 0.00 77 1010.6
20260505021555 73 166 2.6 13.0 0.00 0.00 0.00 76 1010.7
20260505020053 73 163 2.6 12.2 0.00 0.00 0.00 76 1010.4
20260505014554 74 191 3.5 13.0 0.00 0.00 0.00 75 1010.1
20260505013052 74 172 3.5 9.6 0.00 0.00 0.00 75 1010.0
20260505011601 74 158 3.5 8.7 0.00 0.00 0.00 74 1010.0
20260505010058 75 167 2.6 10.4 0.00 0.00 0.00 73 1009.8
20260505004555 76 202 1.7 8.7 0.00 0.00 0.00 71 1009.7
20260505003052 76 160 2.6 10.4 0.00 0.00 0.00 71 1010.0
20260505001553 76 183 2.6 13.0 0.00 0.00 0.00 71 1010.1
20260505000058 76 182 3.5 10.4 0.00 0.00 0.00 70 1010.1
20260504234615 77 165 4.3 9.6 0.00 0.00 0.00 69 1010.2
20260504233053 78 183 5.2 12.2 0.00 0.00 0.00 68 1010.2
20260504231601 79 151 5.2 11.3 0.00 0.00 0.00 66 1010.4
20260504230050 78 175 5.2 15.6 0.00 0.00 0.00 67 1010.6
20260504224606 80 190 4.3 14.8 0.00 0.00 0.00 65 1010.7